Location: ?????
(42.2640°N, 43.4211°E)
Time: 15:25:10
(UTC+00:00)

ERS-2 - Pass Details

Date: 07 August 2020
Orbit: 494 x 498 km, 98.6° (Epoch: 19 September)

Event Time Altitude Azimuth Distance (km) Brightness Sun altitude
Rises 00:20:28 0° 148° (SSE) 2,565 5.6 -17.1°
Reaches altitude 10° 00:22:36 10° 141° (SE) 1,688 4.8 -16.8°
Maximum altitude 00:26:00 39° 71° (ENE) 751 3.5 -16.4°
Drops below altitude 10° 00:29:26 10° 2° (N) 1,703 5.4 -15.9°
Sets 00:31:35 0° 354° (N) 2,592 6.3 -15.6°
